TimeMST,TemperatureF,Dew PointF,Humidity,Sea Level PressureIn,VisibilityMPH,Wind Direction,Wind SpeedMPH,Gust SpeedMPH,PrecipitationIn,Events,Conditions,WindDirDegrees,DateUTC
12:53 AM,-0.9,-11.9,60,30.49,10.0,NNE,6.9,-,N/A,,Clear,30,2013-01-15 07:53:00
1:53 AM,-2.2,-13.0,60,30.16,10.0,Calm,Calm,-,N/A,,Clear,0,2013-01-15 08:53:00
2:53 AM,-0.9,-11.9,60,30.50,10.0,NE,6.9,-,N/A,,Clear,50,2013-01-15 09:53:00
3:53 AM,1.0,-9.9,60,30.46,10.0,ENE,5.8,-,N/A,,Clear,70,2013-01-15 10:53:00
4:53 AM,1.0,-9.9,60,30.49,10.0,NE,9.2,-,N/A,,Clear,50,2013-01-15 11:53:00
5:53 AM,-0.0,-11.0,60,30.53,10.0,ESE,8.1,-,N/A,,Clear,110,2013-01-15 12:53:00
6:53 AM,-5.1,-14.1,65,30.58,10.0,NNE,3.5,-,N/A,,Clear,20,2013-01-15 13:53:00
7:53 AM,-4.0,-13.0,65,30.58,10.0,NNE,4.6,-,N/A,,Clear,30,2013-01-15 14:53:00
8:53 AM,6.1,-7.1,55,30.63,10.0,Calm,Calm,-,N/A,,Clear,0,2013-01-15 15:53:00
9:53 AM,9.0,-7.1,48,30.66,10.0,Calm,Calm,-,N/A,,Clear,0,2013-01-15 16:53:00
10:53 AM,8.1,-6.0,53,30.66,10.0,Calm,Calm,-,N/A,,Clear,0,2013-01-15 17:53:00
11:53 AM,9.0,-5.1,53,30.60,10.0,SE,4.6,-,N/A,,Clear,140,2013-01-15 18:53:00
12:53 PM,10.9,-5.1,49,30.61,10.0,SSE,3.5,-,N/A,,Clear,150,2013-01-15 19:53:00
1:53 PM,12.9,-4.0,47,30.60,10.0,Calm,Calm,-,N/A,,Clear,0,2013-01-15 20:53:00
2:53 PM,12.9,-4.0,47,30.61,10.0,South,3.5,-,N/A,,Clear,180,2013-01-15 21:53:00
3:53 PM,12.9,-4.0,47,30.61,10.0,Calm,Calm,-,N/A,,Clear,0,2013-01-15 22:53:00
4:53 PM,12.0,-4.0,49,30.63,10.0,SSE,3.5,-,N/A,,Clear,160,2013-01-15 23:53:00
5:53 PM,9.0,-5.1,53,30.64,10.0,East,3.5,-,N/A,,Clear,100,2013-01-16 00:53:00
6:53 PM,3.9,-6.0,64,30.72,10.0,NE,4.6,-,N/A,,Clear,40,2013-01-16 01:53:00
7:53 PM,3.0,-7.1,63,30.73,10.0,Calm,Calm,-,N/A,,Clear,0,2013-01-16 02:53:00
8:53 PM,3.9,-6.0,64,30.69,10.0,NE,3.5,-,N/A,,Clear,40,2013-01-16 03:53:00
9:53 PM,3.9,-6.0,64,30.69,10.0,ENE,3.5,-,N/A,,Clear,70,2013-01-16 04:53:00
10:53 PM,1.9,-7.1,66,30.73,10.0,NE,6.9,-,N/A,,Clear,40,2013-01-16 05:53:00
11:53 PM,3.0,-7.1,63,30.72,10.0,NE,6.9,-,N/A,,Clear,40,2013-01-16 06:53:00